| time (UTC) | temp F | wind direction | speed MPH | gust MPH | rain 1hr in | rain 24hr in | rain mn in | humidity % | barometer mb |
| 20260507060023 | 50 | 240 | 0.0 | 0.0 | 0.00 | 0.73 | 0.01 | 92 | 1013.5 |
| 20260507054518 | 50 | 240 | 0.0 | 0.0 | 0.00 | 0.73 | 0.01 | 92 | 1013.6 |
| 20260507053016 | 50 | 240 | 0.0 | 0.0 | 0.00 | 0.73 | 0.01 | 91 | 1013.4 |
| 20260507051514 | 49 | 240 | 0.0 | 0.0 | 0.00 | 0.73 | 0.01 | 91 | 1013.2 |
| 20260507050012 | 49 | 240 | 0.0 | 0.0 | 0.00 | 0.86 | 0.01 | 91 | 1013.0 |
| 20260507044511 | 49 | 240 | 0.0 | 0.0 | 0.00 | 0.86 | 0.01 | 91 | 1012.9 |
| 20260507043009 | 49 | 240 | 0.0 | 0.0 | 0.00 | 0.86 | 0.01 | 91 | 1012.9 |
| 20260507041523 | 49 | 240 | 0.0 | 0.0 | 0.00 | 0.86 | 0.01 | 91 | 1012.8 |
| 20260507040008 | 49 | 240 | 0.0 | 0.0 | 0.00 | 0.94 | 0.01 | 91 | 1012.8 |
| 20260507034512 | 49 | 240 | 0.0 | 0.0 | 0.00 | 0.94 | 0.01 | 91 | 1012.8 |
| 20260507033009 | 49 | 240 | 0.0 | 0.0 | 0.00 | 0.94 | 0.01 | 91 | 1012.7 |
| 20260507031505 | 49 | 240 | 0.0 | 0.0 | 0.00 | 0.94 | 0.01 | 91 | 1012.5 |
| 20260507030004 | 49 | 240 | 0.0 | 0.0 | 0.00 | 0.95 | 0.01 | 91 | 1012.6 |
| 20260507024505 | 49 | 240 | 0.0 | 0.0 | 0.00 | 0.95 | 0.01 | 90 | 1012.6 |
| 20260507023001 | 49 | 240 | 0.0 | 0.0 | 0.00 | 0.95 | 0.01 | 90 | 1012.5 |
| 20260507021600 | 50 | 240 | 0.0 | 0.0 | 0.00 | 0.95 | 0.01 | 90 | 1012.3 |
| 20260507020059 | 50 | 240 | 0.0 | 0.0 | 0.00 | 0.95 | 0.01 | 91 | 1012.3 |
| 20260507014607 | 50 | 240 | 0.0 | 0.0 | 0.00 | 0.95 | 0.01 | 91 | 1012.3 |
| 20260507013113 | 50 | 240 | 0.0 | 0.0 | 0.00 | 0.95 | 0.01 | 91 | 1012.3 |
| 20260507011556 | 50 | 240 | 0.0 | 0.0 | 0.00 | 0.95 | 0.01 | 91 | 1012.2 |
| 20260507010056 | 50 | 240 | 0.0 | 0.0 | 0.00 | 0.95 | 0.01 | 91 | 1012.3 |
| 20260507004555 | 50 | 240 | 0.0 | 0.0 | 0.00 | 0.95 | 0.01 | 91 | 1012.2 |
| 20260507003053 | 50 | 240 | 0.0 | 0.0 | 0.00 | 0.95 | 0.01 | 90 | 1012.3 |
| 20260507001609 | 50 | 240 | 0.0 | 0.0 | 0.00 | 0.95 | 0.01 | 90 | 1012.2 |
| 20260507000051 | 50 | 240 | 0.0 | 0.0 | 0.00 | 0.95 | 0.01 | 90 | 1012.1 |
| 20260506234552 | 51 | 240 | 0.0 | 0.0 | 0.01 | 0.95 | 0.01 | 90 | 1012.1 |
| 20260506233049 | 51 | 240 | 0.0 | 0.0 | 0.01 | 0.95 | 0.01 | 90 | 1011.9 |
| 20260506231549 | 51 | 240 | 0.0 | 0.0 | 0.01 | 0.95 | 0.01 | 90 | 1012.0 |
| 20260506230047 | 51 | 240 | 0.0 | 0.0 | 0.01 | 0.95 | 0.01 | 90 | 1012.0 |
| 20260506224546 | 51 | 240 | 0.0 | 0.0 | 0.00 | 0.94 | 0.00 | 90 | 1011.9 |
| 20260506223101 | 51 | 240 | 0.0 | 0.0 | 0.00 | 0.94 | 0.00 | 90 | 1011.9 |
| 20260506221543 | 51 | 240 | 0.0 | 0.0 | 0.00 | 0.94 | 0.00 | 90 | 1011.8 |
| 20260506220042 | 51 | 240 | 0.0 | 0.0 | 0.00 | 0.94 | 0.00 | 90 | 1011.8 |
| 20260506214542 | 51 | 240 | 0.0 | 0.0 | 0.00 | 1.08 | 0.94 | 90 | 1011.7 |
| 20260506213039 | 51 | 240 | 0.0 | 0.0 | 0.00 | 1.08 | 0.94 | 89 | 1011.6 |
| 20260506211540 | 51 | 240 | 0.0 | 0.0 | 0.00 | 1.08 | 0.94 | 89 | 1011.7 |
| 20260506210040 | 51 | 240 | 0.0 | 0.0 | 0.00 | 1.31 | 0.94 | 90 | 1011.7 |
| 20260506204535 | 51 | 240 | 0.0 | 0.0 | 0.00 | 1.31 | 0.94 | 89 | 1011.5 |
| 20260506203041 | 51 | 240 | 0.0 | 0.0 | 0.00 | 1.31 | 0.94 | 89 | 1011.4 |
| 20260506201532 | 51 | 240 | 0.0 | 0.0 | 0.00 | 1.31 | 0.94 | 89 | 1011.3 |
| 20260506200035 | 52 | 240 | 0.0 | 0.0 | 0.01 | 1.31 | 0.94 | 89 | 1011.2 |
| 20260506194530 | 52 | 240 | 0.0 | 0.0 | 0.03 | 1.31 | 0.94 | 89 | 1011.1 |
| 20260506193026 | 52 | 240 | 0.0 | 0.0 | 0.06 | 1.31 | 0.94 | 88 | 1010.6 |
| 20260506191526 | 52 | 240 | 0.0 | 0.0 | 0.07 | 1.31 | 0.94 | 88 | 1010.4 |
| 20260506190025 | 52 | 240 | 0.0 | 0.0 | 0.07 | 1.30 | 0.94 | 88 | 1010.3 |
| 20260506184525 | 53 | 240 | 0.0 | 0.0 | 0.08 | 1.28 | 0.91 | 87 | 1010.4 |
| 20260506183025 | 53 | 240 | 0.0 | 0.0 | 0.05 | 1.24 | 0.88 | 85 | 1010.4 |
| 20260506181530 | 54 | 244 | 0.0 | 0.0 | 0.04 | 1.24 | 0.87 | 84 | 1010.5 |
| 20260506180031 | 55 | 244 | 0.0 | 0.0 | 0.03 | 1.23 | 0.87 | 81 | 1010.2 |
| 20260506174519 | 56 | 208 | 0.0 | 0.0 | 0.00 | 1.20 | 0.83 | 79 | 1010.0 |
| 20260506173019 | 58 | 206 | 0.0 | 0.0 | 0.00 | 1.20 | 0.83 | 75 | 1009.2 |
| 20260506171535 | 59 | 143 | 0.0 | 0.0 | 0.00 | 1.20 | 0.83 | 72 | 1009.1 |
| 20260506170018 | 60 | 98 | 0.0 | 1.0 | 0.00 | 1.21 | 0.83 | 70 | 1008.6 |
| 20260506164521 | 60 | 33 | 0.0 | 0.0 | 0.00 | 1.21 | 0.83 | 72 | 1008.4 |
| 20260506163021 | 60 | 93 | 0.0 | 0.0 | 0.00 | 1.21 | 0.83 | 73 | 1008.4 |
| 20260506161524 | 60 | 79 | 0.0 | 0.0 | 0.00 | 1.21 | 0.83 | 72 | 1008.6 |
| 20260506160017 | 60 | 136 | 0.0 | 0.0 | 0.00 | 1.21 | 0.83 | 71 | 1008.6 |
| 20260506154515 | 60 | 91 | 0.0 | 2.0 | 0.00 | 1.21 | 0.83 | 71 | 1008.6 |
| 20260506153014 | 61 | 86 | 0.0 | 1.0 | 0.00 | 1.21 | 0.83 | 69 | 1008.6 |
| 20260506151515 | 62 | 137 | 0.0 | 6.0 | 0.00 | 1.21 | 0.83 | 67 | 1008.6 |
| 20260506150017 | 63 | 187 | 0.0 | 1.0 | 0.00 | 1.21 | 0.83 | 66 | 1008.6 |
| 20260506144513 | 63 | 49 | 0.0 | 7.0 | 0.00 | 1.21 | 0.83 | 69 | 1008.5 |
| 20260506143010 | 62 | 87 | 0.0 | 2.0 | 0.00 | 1.21 | 0.83 | 71 | 1008.6 |
| 20260506141507 | 60 | 307 | 1.0 | 5.0 | 0.00 | 1.21 | 0.83 | 74 | 1008.8 |
| 20260506140006 | 61 | 118 | 0.0 | 1.0 | 0.00 | 1.21 | 0.83 | 73 | 1008.9 |
| 20260506134516 | 61 | 113 | 0.0 | 1.0 | 0.00 | 1.21 | 0.83 | 75 | 1009.1 |
| 20260506133000 | 60 | 78 | 0.0 | 0.0 | 0.00 | 1.21 | 0.83 | 76 | 1009.2 |
| 20260506131611 | 59 | 90 | 0.0 | 0.0 | 0.00 | 1.21 | 0.83 | 78 | 1009.4 |
| 20260506130056 | 58 | 327 | 0.0 | 0.0 | 0.00 | 1.21 | 0.83 | 80 | 1009.4 |
| 20260506124552 | 57 | 73 | 0.0 | 0.0 | 0.00 | 1.22 | 0.83 | 83 | 1009.3 |
| 20260506123049 | 56 | 62 | 0.0 | 2.0 | 0.00 | 1.22 | 0.83 | 87 | 1009.4 |
| 20260506121547 | 55 | 131 | 0.0 | 1.0 | 0.00 | 1.22 | 0.83 | 89 | 1009.5 |
| 20260506120043 | 54 | 80 | 0.0 | 1.0 | 0.01 | 1.22 | 0.83 | 90 | 1009.6 |
| 20260506114545 | 54 | 93 | 0.0 | 2.0 | 0.01 | 1.67 | 0.83 | 91 | 1009.7 |
| 20260506113038 | 53 | 108 | 0.0 | 5.0 | 0.01 | 1.67 | 0.83 | 91 | 1009.7 |
| 20260506111534 | 53 | 67 | 0.0 | 1.0 | 0.00 | 1.66 | 0.83 | 91 | 1009.7 |
| 20260506110034 | 53 | 67 | 0.0 | 2.0 | 0.00 | 1.66 | 0.83 | 92 | 1009.8 |
| 20260506104533 | 53 | 67 | 0.0 | 1.0 | 0.01 | 1.66 | 0.83 | 92 | 1009.9 |
| 20260506103033 | 52 | 61 | 0.0 | 2.0 | 0.02 | 1.66 | 0.83 | 92 | 1009.9 |
| 20260506101531 | 52 | 70 | 0.0 | 2.0 | 0.03 | 1.66 | 0.83 | 92 | 1009.9 |
| 20260506100033 | 52 | 106 | 0.0 | 5.0 | 0.06 | 1.66 | 0.83 | 92 | 1009.7 |
| 20260506094525 | 52 | 88 | 0.0 | 2.0 | 0.06 | 1.65 | 0.82 | 92 | 1009.7 |
| 20260506093022 | 51 | 96 | 0.0 | 4.0 | 0.08 | 1.64 | 0.80 | 92 | 1009.5 |
| 20260506091521 | 51 | 76 | 0.0 | 2.0 | 0.09 | 1.63 | 0.80 | 92 | 1009.4 |
| 20260506090018 | 51 | 45 | 0.0 | 2.0 | 0.09 | 1.61 | 0.77 | 92 | 1009.2 |
| 20260506084517 | 51 | 55 | 0.0 | 1.0 | 0.09 | 1.58 | 0.75 | 92 | 1009.0 |
| 20260506083015 | 51 | 55 | 0.0 | 2.0 | 0.09 | 1.56 | 0.72 | 92 | 1008.9 |
| 20260506081520 | 51 | 55 | 0.0 | 2.0 | 0.12 | 1.53 | 0.69 | 92 | 1008.7 |
| 20260506073011 | 51 | 57 | 0.0 | 0.0 | 0.18 | 1.46 | 0.62 | 92 | 1008.3 |
| 20260506071510 | 51 | 57 | 0.0 | 0.0 | 0.17 | 1.41 | 0.56 | 92 | 1008.2 |
| 20260506061505 | 51 | 57 | 0.0 | 0.0 | 0.14 | 1.24 | 0.40 | 92 | 1007.5 |